FW5274 Weather Reports


Display with metric or nautical units.
time (UTC)temp
F
wind
direction
speed
MPH
gust
MPH
rain 1hr
in
rain 24hr
in
rain mn
in
humidity
%
barometer
mb
20260502183037 70 202 3.0 8.0 0.00 0.00 0.00 49 1019.0
20260502181537 67 241 3.0 7.0 0.00 0.00 0.00 55 1019.0
20260502163117 58 90 0.0 3.0 0.00 0.00 0.00 74 1018.9
20260502161537 58 250 1.0 4.0 0.00 0.00 0.00 73 1019.0
20260502151531 55 254 2.0 5.0 0.00 0.00 0.00 76 1018.6
20260502150108 54 211 4.0 9.0 0.00 0.00 0.00 77 1018.6
20260502123037 53 202 3.0 4.0 0.00 0.00 0.00 76 1017.4
20260502121528 53 192 2.0 4.0 0.00 0.00 0.00 76 1017.4
20260502114651 55 282 2.0 6.0 0.00 0.00 0.00 72 1017.6
20260502111534 55 106 2.0 6.0 0.00 0.00 0.00 72 1017.5
20260502104535 55 90 5.0 9.0 0.00 0.00 0.00 71 1017.2
20260502100150 55 247 2.0 5.0 0.00 0.00 0.00 72 1017.7
20260502071536 55 101 2.0 4.0 0.00 0.00 0.00 65 1018.1
20260502070031 56 43 3.0 4.0 0.00 0.00 0.00 65 1018.1
20260502064537 56 43 4.0 5.0 0.00 0.00 0.00 65 1018.0
20260502063033 56 102 3.0 4.0 0.00 0.00 0.00 65 1018.1
20260502061533 56 89 3.0 4.0 0.00 0.00 0.00 64 1018.1
20260502060143 55 54 3.0 4.0 0.00 0.00 0.00 63 1017.8
20260502054534 55 65 1.0 3.0 0.00 0.00 0.00 59 1018.1
20260502053107 57 231 1.0 4.0 0.00 0.00 0.00 58 1018.0
20260502051606 58 56 2.0 5.0 0.00 0.00 0.00 55 1017.8
20260502050035 59 105 3.0 5.0 0.00 0.00 0.00 51 1017.8
20260502043035 62 12 2.0 4.0 0.00 0.00 0.00 46 1017.7
20260502041536 62 29 3.0 6.0 0.00 0.00 0.00 46 1017.6
20260502040141 62 14 3.0 6.0 0.00 0.00 0.00 45 1017.5
20260502034531 64 336 2.0 5.0 0.00 0.00 0.00 44 1017.4
20260502031534 64 12 3.0 5.0 0.00 0.00 0.00 44 1017.3
20260502030035 65 26 3.0 7.0 0.00 0.00 0.00 44 1017.0
20260502024538 67 43 3.0 6.0 0.00 0.00 0.00 42 1016.8
20260502021533 69 34 5.0 8.0 0.00 0.00 0.00 38 1016.6
20260502020035 70 41 5.0 9.0 0.00 0.00 0.00 38 1016.5
20260502014535 70 45 5.0 10.0 0.00 0.00 0.00 37 1016.5
20260502013035 71 50 6.0 11.0 0.00 0.00 0.00 35 1016.5
20260502011606 72 52 7.0 12.0 0.00 0.00 0.00 35 1016.7
20260502010035 73 53 7.0 16.0 0.00 0.00 0.00 33 1016.5
20260502004535 74 57 7.0 13.0 0.00 0.00 0.00 32 1016.5
20260502003036 75 53 7.0 16.0 0.00 0.00 0.00 32 1016.5
20260502001534 76 33 8.0 15.0 0.00 0.00 0.00 32 1016.5
20260502000035 76 39 9.0 19.0 0.00 0.00 0.00 32 1016.6
20260501234534 77 30 10.0 18.0 0.00 0.00 0.00 32 1016.7
20260501233106 77 52 8.0 14.0 0.00 0.00 0.00 32 1016.9
20260501231529 77 56 9.0 17.0 0.00 0.00 0.00 31 1017.0
20260501230034 77 62 8.0 19.0 0.00 0.00 0.00 31 1017.1
20260501224606 77 31 8.0 16.0 0.00 0.00 0.00 33 1017.6
20260501221533 77 29 7.0 15.0 0.00 0.00 0.00 34 1018.0
20260501220037 77 40 8.0 14.0 0.00 0.00 0.00 34 1018.2
20260501214530 76 43 6.0 16.0 0.00 0.00 0.00 34 1018.4
20260501213035 75 42 7.0 15.0 0.00 0.00 0.00 35 1018.6
20260501211533 75 44 7.0 15.0 0.00 0.00 0.00 35 1018.8
20260501204537 75 58 4.0 11.0 0.00 0.00 0.00 35 1019.1
20260501203033 75 63 5.0 13.0 0.00 0.00 0.00 35 1019.2
20260501201535 74 63 5.0 10.0 0.00 0.00 0.00 36 1019.4
20260501200033 74 80 4.0 12.0 0.00 0.00 0.00 38 1019.6
20260501193034 73 69 5.0 10.0 0.00 0.00 0.00 38 1020.0
20260501191609 71 65 4.0 9.0 0.00 0.00 0.00 40 1020.3
20260501184535 69 43 5.0 9.0 0.00 0.00 0.00 42 1020.6